This is the latest recevied weather packets stored in our database for station/object KB1RMA-4. If no packets are shown the sender has not sent any weather packets the latest 10 day(s).
| Time | Temp. | Humidity | Pressure | Rain* | Wind** | Luminosity | Snow |
|---|---|---|---|---|---|---|---|
| 1787524530 | 20° C | 92% | 1010.3 hPa | 0 mm | - | 35 W/m² | - |
| 1787524230 | 20° C | 92% | 1010.4 hPa | 0 mm | - | 56 W/m² | - |
| 1787523926 | 20° C | 92% | 1009.9 hPa | 0 mm | - | 51 W/m² | - |
| 1787523626 | 20° C | 91% | 1009.9 hPa | 0 mm | - | 57 W/m² | - |
| 1787523325 | 20° C | 91% | 1009.8 hPa | 0 mm | - | 50 W/m² | - |
| 1787523021 | 20° C | 91% | 1009.8 hPa | 0 mm | - | 40 W/m² | - |
| 1787522717 | 20° C | 91% | 1009.7 hPa | 0 mm | - | 57 W/m² | - |
| 1787522412 | 20° C | 91% | 1010 hPa | 0 mm | - | 60 W/m² | - |
| 1787522107 | 20.56° C | 91% | 1009.9 hPa | 0 mm | - | 47 W/m² | - |
| 1787521807 | 20.56° C | 91% | 1009.9 hPa | 0 mm | - | 89 W/m² | - |
| 1787521501 | 20.56° C | 91% | 1009.7 hPa | 0 mm | - | 98 W/m² | - |
| 1787521201 | 20.56° C | 90% | 1009.8 hPa | 0 mm | - | 39 W/m² | - |
| 1787520896 | 20.56° C | 90% | 1009.9 hPa | 0 mm | - | 95 W/m² | - |
| 1787520592 | 20.56° C | 90% | 1009.9 hPa | 0 mm | - | 35 W/m² | - |
| 1787520287 | 20.56° C | 90% | 1009.7 hPa | 0 mm | - | 54 W/m² | - |
| 1787519982 | 20.56° C | 90% | 1009.7 hPa | 0 mm | - | 113 W/m² | - |
| 1787519679 | 20.56° C | 90% | 1009.7 hPa | 0 mm | - | 97 W/m² | - |
| 1787519378 | 21.11° C | 90% | 1009.7 hPa | 0 mm | - | 147 W/m² | - |
| 1787519074 | 21.11° C | 91% | 1009.7 hPa | 0 mm | - | 154 W/m² | - |
| 1787518768 | 20.56° C | 91% | 1009.7 hPa | 0 mm | - | 269 W/m² | - |
| 1787518465 | 20.56° C | 91% | 1009.9 hPa | 0 mm | - | 114 W/m² | - |
| 1787518164 | 20.56° C | 90% | 1009.8 hPa | 0 mm | - | 103 W/m² | - |
| 1787517861 | 20.56° C | 90% | 1010 hPa | 0 mm | - | 85 W/m² | - |
| 1787517556 | 21.11° C | 90% | 1009.9 hPa | 0 mm | - | 115 W/m² | - |
| 1787517254 | 21.11° C | 90% | 1009.9 hPa | 0 mm | - | 150 W/m² | - |
* Rain latest hour (hover to see other rain measurements)
** Current wind speed in m/s (hover to see current wind gust speed)